Wind_Speed
13 13 12 12 12 13 15 18 20 21 22 22 22 20 19 19 20 21 22 22 21 19 18 19 19 18 17 16 14 13 13 12 12 12 12 13 13 14 14 16 17 16 16
15 15 14 15 15 16 18 19 21 22 23 24 24 24 22 20 20 22 23 24 24 21 20 20 20 19 19 18 17 16 14 14 13 14 14 14 14 15 16 17 18 18 18
18 17 17 18 19 20 21 22 23 24 25 25 26 26 25 23 22 23 24 25 26 24 23 22 21 21 21 21 20 19 17 16 16 16 16 16 16 16 17 18 19 19 19
21 20 20 21 22 23 25 25 26 26 27 28 28 29 28 27 26 24 24 26 27 27 26 25 24 24 23 23 23 22 20 19 18 18 18 18 18 18 18 19 20 21 21
25 24 23 24 25 26 28 29 29 30 30 30 30 30 31 30 29 27 26 27 28 29 30 29 28 27 26 25 24 24 22 21 21 20 20 19 19 19 20 21 22 22 22
29 27 26 27 28 29 31 33 34 34 34 34 34 32 32 32 32 30 29 28 28 30 31 32 31 30 28 26 25 25 24 23 23 22 21 20 20 21 22 22 23 23 23
32 31 29 29 31 32 34 36 37 37 37 38 38 35 34 34 33 33 32 30 29 30 31 32 32 31 30 28 27 26 26 25 25 25 23 22 22 22 23 24 24 24 24
35 33 30 30 32 34 35 37 39 39 38 39 40 39 35 34 36 36 34 33 31 31 31 31 31 32 32 31 30 29 28 27 27 27 26 25 24 24 25 25 25 24 24
33 30 30 31 33 34 35 37 39 39 38 38 40 41 39 35 36 36 35 34 33 32 31 31 31 32 32 32 31 30 30 30 29 28 28 27 26 26 26 26 26 25 24
30 29 30 31 33 34 35 37 39 40 40 40 41 41 40 37 35 34 35 35 35 34 32 32 33 33 33 33 33 32 32 31 31 30 30 29 28 27 26 26 26 25 24
29 29 31 33 34 35 36 38 39 41 41 41 40 39 38 36 35 33 32 34 36 35 35 35 35 35 34 34 34 34 33 32 33 32 32 31 29 27 26 26 25 25 24
30 32 33 35 36 37 38 40 41 41 41 39 38 36 34 33 32 32 32 34 37 37 38 36 36 35 35 35 35 35 35 34 33 33 33 32 30 29 27 26 25 25 25
33 35 37 38 39 40 40 40 39 38 37 35 33 31 31 31 31 32 34 36 37 38 40 38 36 35 35 36 36 35 35 35 34 34 33 33 31 30 28 27 26 25 25
35 38 39 41 41 40 38 36 34 33 31 29 28 28 28 29 31 32 34 36 37 38 40 40 38 37 36 36 36 36 36 35 35 34 34 33 32 30 28 27 26 24 25
37 38 38 38 37 35 33 31 29 28 27 25 25 24 26 28 30 31 33 35 38 39 40 40 40 38 37 35 35 36 37 37 36 34 34 33 31 29 28 27 26 24 24
37 37 35 33 31 30 29 28 27 26 25 24 23 23 24 25 26 29 31 34 36 38 39 38 38 38 37 36 35 34 36 37 35 34 33 31 30 28 27 26 25 24 23
36 34 33 32 31 30 29 28 27 26 25 25 24 24 23 23 23 24 26 28 31 34 35 35 35 36 36 36 35 35 36 34 33 32 31 30 29 27 25 24 24 23 22
34 33 33 32 31 30 29 29 28 27 26 25 26 26 25 24 24 23 23 23 24 26 30 32 33 33 33 33 34 34 34 32 31 31 30 29 28 25 24 22 22 23 22
32 32 32 32 31 30 30 29 28 28 27 27 27 27 27 27 26 26 24 24 23 22 22 23 26 27 29 30 31 32 32 29 28 28 29 28 27 25 22 22 22 22 22
32 32 32 31 31 30 29 28 28 28 28 27 27 28 28 29 29 28 27 26 24 22 20 19 20 21 23 25 26 27 27 25 24 24 25 25 24 23 22 21 22 22 22
32 31 31 30 29 29 28 28 28 28 28 27 27 27 27 28 29 30 30 29 28 26 24 22 21 19 20 21 22 22 22 21 20 21 21 22 21 21 21 21 21 21 22
31 31 30 29 28 28 28 28 27 27 27 27 26 26 26 27 28 30 30 31 31 30 29 28 26 24 23 22 22 21 20 20 20 21 21 21 21 21 21 21 20 21 21
30 30 30 29 28 27 26 26 26 26 25 25 25 26 26 27 28 29 30 31 32 32 32 32 31 30 29 27 26 25 25 24 24 24 24 25 24 23 23 22 21 21 21
28 27 27 25 24 24 24 23 24 25 25 25 26 26 26 27 27 28 29 30 31 32 33 34 34 34 34 33 32 30 29 28 28 28 27 26 26 26 25 25 24 23 23
22 21 20 20 20 21 22 22 23 24 24 24 24 25 25 26 26 27 28 30 31 32 34 35 36 36 37 37 37 36 35 33 33 32 30 30 31 31 30 30 29 27 26
16 15 16 17 19 20 21 21 21 21 21 21 22 22 23 24 25 26 27 28 29 31 32 34 35 37 38 39 40 40 39 38 37 37 36 36 35 35 35 34 34 32 32
Wind_Direction
272 275 280 287 293 302 313 323 330 333 331 327 321 318 310 294 284 281 279 278 278 281 285 285 283 285 287 286 283 281 283 283 282 280 279 278 278 278 279 277 276 278 277
273 273 277 284 291 298 306 313 318 323 325 323 318 315 311 302 287 279 275 274 275 277 281 284 283 282 284 284 280 278 280 282 283 282 281 280 279 280 280 279 276 276 275
280 282 285 290 295 299 302 306 309 313 316 316 313 311 308 303 295 282 276 272 272 273 276 279 281 280 279 278 276 276 279 283 285 285 285 284 284 282 280 279 278 277 275
281 284 288 291 294 296 298 300 303 306 308 308 307 306 305 301 297 288 279 273 271 271 272 275 277 277 276 274 272 272 275 279 284 286 286 286 287 287 285 281 278 276 276
277 280 285 289 292 292 294 296 298 300 301 301 301 300 299 298 295 290 281 274 270 269 269 270 271 273 273 272 270 269 270 273 279 283 284 283 285 288 288 285 279 276 277
273 276 281 287 290 291 292 294 295 297 298 297 297 296 295 294 291 287 282 275 270 267 266 267 267 268 270 270 269 267 266 269 275 278 279 280 281 284 286 286 283 278 277
270 272 276 282 287 289 290 291 293 295 296 295 294 293 292 291 288 282 279 275 270 266 266 265 264 266 268 269 268 266 264 266 272 275 275 277 279 280 282 283 284 280 277
268 271 274 280 283 285 287 289 291 293 294 294 294 293 291 289 285 280 277 273 269 267 267 266 264 265 266 268 267 265 264 265 269 271 272 276 278 277 277 278 280 279 276
272 275 279 281 282 283 285 287 290 292 293 293 294 293 292 288 284 280 275 269 267 268 268 267 264 264 265 267 267 264 263 265 267 269 270 274 276 274 273 273 275 276 274
279 280 280 280 280 281 284 287 290 292 292 293 293 293 292 289 284 278 272 268 265 265 267 266 264 264 264 265 265 265 264 264 265 266 267 271 275 273 270 269 270 272 270
280 279 278 279 281 283 286 289 291 293 294 294 294 293 290 287 283 277 268 264 263 263 265 266 265 264 263 263 264 265 264 265 266 264 264 268 271 270 267 266 267 267 266
277 278 278 280 282 285 287 290 291 293 293 294 294 292 289 284 279 272 265 260 260 261 264 266 265 264 262 262 263 264 264 265 265 263 263 265 268 267 264 263 263 263 262
276 278 279 281 282 284 286 288 290 291 292 293 293 291 287 281 275 269 264 260 259 259 261 264 264 262 262 262 263 263 263 263 263 262 261 263 265 264 262 261 260 259 257
277 279 280 281 281 283 285 288 290 291 291 291 291 291 288 281 276 270 266 263 261 259 260 263 264 263 264 265 263 262 261 260 261 260 259 260 261 261 260 259 258 256 255
277 281 281 281 281 283 285 287 288 288 288 288 289 291 290 284 277 273 269 266 264 262 261 262 263 266 266 266 265 263 261 258 259 257 255 255 256 257 257 257 256 256 254
276 279 280 280 280 281 283 284 284 284 283 283 285 289 293 291 282 277 273 269 265 263 264 263 262 264 266 266 265 262 257 255 252 250 249 250 252 254 255 256 255 254 252
274 276 277 278 279 280 281 280 279 279 279 278 278 283 286 291 292 289 282 276 271 268 266 264 264 265 264 265 264 260 254 248 244 243 243 245 249 252 254 254 253 251 248
270 273 275 276 277 278 277 276 276 275 275 276 276 276 279 283 285 289 288 286 282 275 270 268 266 265 263 262 259 255 249 243 241 239 240 243 246 249 250 250 249 247 245
269 271 273 273 274 275 274 274 274 273 273 274 274 274 275 277 279 282 285 287 287 284 278 272 266 261 257 253 249 245 242 240 239 240 240 239 242 244 245 245 245 244 245
269 270 271 272 273 273 273 273 273 272 273 273 272 272 272 273 273 275 278 280 283 282 278 275 267 258 251 247 243 241 238 238 240 243 240 238 238 241 243 244 244 244 244
269 270 271 272 273 274 274 273 271 271 272 273 273 272 272 272 272 272 273 274 275 276 275 273 271 267 260 251 243 241 239 239 244 247 242 239 239 242 245 245 245 244 244
269 270 272 273 274 274 274 273 271 271 272 272 272 271 271 271 271 270 270 270 270 271 270 270 268 266 263 260 255 252 248 248 252 252 249 247 247 248 248 248 247 244 243
270 271 272 273 273 273 273 272 272 272 272 272 272 272 271 269 268 267 267 268 268 268 267 267 267 266 263 260 257 254 253 253 252 252 252 251 251 252 252 252 251 248 245
273 273 273 272 272 273 274 274 276 276 276 275 274 273 272 271 269 267 267 266 266 266 266 265 265 264 263 262 259 256 255 253 251 251 250 251 251 252 252 252 251 249 246
273 273 274 277 277 278 279 280 280 280 279 278 277 276 275 273 271 269 268 267 266 265 263 263 262 261 260 259 259 256 254 252 248 245 244 244 245 248 249 251 250 247 246
274 274 277 279 281 283 284 285 285 284 283 282 281 280 278 277 275 272 271 269 267 265 263 263 262 261 260 258 257 256 255 253 249 244 242 241 242 244 244 246 248 247 247
Height
5899 5899 5898 5897 5897 5896 5894 5893 5891 5889 5887 5885 5883 5882 5880 5879 5879 5879 5879 5878 5878 5877 5877 5877 5876 5875 5874 5873 5872 5871 5870 5869 5868 5867 5866 5865 5865 5864 5863 5863 5862 5862 5861
5895 5894 5894 5893 5892 5891 5890 5889 5887 5885 5883 5881 5879 5878 5876 5875 5874 5873 5873 5873 5873 5873 5872 5872 5872 5871 5870 5870 5869 5868 5867 5866 5865 5864 5863 5862 5861 5861 5860 5859 5858 5858 5858
5890 5889 5888 5887 5887 5886 5885 5884 5882 5881 5878 5877 5875 5873 5871 5870 5869 5868 5867 5867 5867 5867 5867 5867 5866 5866 5866 5865 5865 5864 5864 5863 5862 5861 5860 5859 5858 5857 5856 5855 5854 5854 5854
5883 5883 5882 5881 5881 5880 5879 5878 5876 5875 5873 5871 5870 5868 5866 5864 5863 5862 5861 5861 5861 5861 5861 5861 5861 5861 5861 5860 5860 5860 5860 5859 5858 5857 5856 5855 5854 5853 5852 5851 5850 5849 5849
5876 5876 5875 5874 5874 5873 5872 5871 5869 5868 5867 5865 5864 5862 5860 5858 5857 5856 5855 5854 5854 5854 5854 5855 5855 5855 5855 5855 5855 5855 5855 5854 5853 5852 5851 5850 5849 5848 5847 5846 5845 5845 5845
5868 5868 5867 5867 5866 5865 5864 5862 5862 5861 5859 5857 5857 5856 5854 5851 5850 5848 5848 5847 5847 5847 5847 5848 5848 5848 5849 5849 5849 5849 5849 5849 5849 5848 5847 5846 5845 5844 5843 5842 5841 5840 5840
5859 5859 5859 5858 5858 5857 5856 5854 5853 5852 5851 5848 5848 5848 5847 5844 5842 5840 5840 5840 5839 5839 5840 5840 5840 5841 5842 5842 5842 5842 5843 5843 5843 5842 5842 5841 5840 5839 5838 5837 5836 5835 5835
5849 5849 5850 5850 5849 5849 5848 5846 5844 5843 5842 5839 5837 5837 5838 5838 5834 5832 5832 5831 5831 5831 5832 5832 5832 5833 5834 5834 5835 5836 5836 5836 5836 5836 5836 5835 5834 5834 5833 5832 5831 5830 5829
5839 5840 5841 5841 5841 5841 5840 5838 5836 5834 5833 5831 5828 5826 5827 5828 5825 5824 5823 5823 5823 5823 5823 5824 5824 5825 5826 5826 5827 5828 5829 5829 5829 5829 5829 5829 5828 5828 5827 5826 5825 5825 5824
5831 5832 5832 5833 5832 5832 5831 5829 5827 5825 5824 5822 5819 5816 5816 5816 5816 5815 5814 5814 5814 5815 5815 5816 5816 5817 5817 5818 5819 5820 5821 5821 5822 5822 5822 5822 5822 5821 5820 5820 5819 5819 5819
5822 5823 5824 5824 5823 5823 5821 5820 5818 5816 5813 5812 5810 5807 5805 5804 5804 5804 5805 5805 5805 5806 5807 5807 5808 5808 5808 5809 5810 5811 5812 5813 5814 5814 5815 5815 5815 5814 5814 5813 5813 5813 5813
5814 5815 5815 5815 5814 5814 5812 5811 5809 5806 5804 5801 5799 5797 5796 5795 5794 5794 5795 5795 5795 5796 5797 5798 5798 5799 5799 5800 5801 5801 5802 5804 5805 5806 5807 5807 5807 5807 5807 5807 5807 5807 5807
5805 5806 5806 5805 5805 5804 5803 5801 5799 5797 5795 5792 5790 5788 5787 5786 5785 5785 5785 5785 5786 5786 5787 5788 5788 5789 5790 5790 5791 5792 5793 5794 5796 5797 5798 5799 5800 5800 5800 5800 5801 5801 5801
5796 5796 5796 5796 5795 5794 5793 5792 5790 5788 5786 5784 5782 5780 5779 5777 5776 5776 5776 5776 5776 5777 5777 5778 5779 5779 5780 5781 5781 5782 5784 5785 5787 5788 5789 5791 5791 5792 5792 5793 5794 5795 5795
5787 5787 5786 5786 5785 5785 5784 5783 5781 5780 5778 5777 5775 5773 5771 5769 5768 5768 5767 5767 5767 5767 5767 5767 5768 5769 5770 5771 5772 5773 5774 5776 5777 5779 5780 5782 5783 5784 5785 5786 5787 5788 5789
5777 5777 5777 5777 5776 5775 5775 5774 5773 5772 5771 5770 5768 5767 5764 5762 5760 5759 5758 5757 5757 5757 5757 5757 5758 5759 5760 5761 5762 5763 5764 5766 5767 5770 5772 5773 5775 5776 5777 5778 5780 5781 5783
5768 5768 5768 5768 5767 5767 5766 5765 5765 5764 5763 5762 5761 5760 5758 5756 5754 5752 5751 5749 5748 5747 5746 5746 5747 5749 5750 5751 5752 5754 5755 5756 5758 5760 5763 5765 5767 5768 5770 5771 5773 5774 5776
5759 5759 5759 5759 5758 5758 5757 5757 5756 5756 5755 5754 5754 5753 5752 5750 5749 5747 5745 5743 5741 5739 5738 5738 5738 5739 5740 5741 5743 5745 5746 5748 5749 5751 5754 5756 5758 5760 5762 5764 5766 5768 5769
5750 5750 5750 5750 5749 5749 5748 5748 5747 5747 5746 5746 5745 5745 5744 5743 5742 5741 5739 5737 5735 5733 5732 5731 5731 5731 5732 5733 5735 5736 5738 5740 5742 5744 5746 5748 5751 5753 5755 5757 5759 5761 5763
5741 5741 5741 5741 5740 5740 5739 5739 5738 5738 5737 5737 5736 5736 5736 5735 5735 5734 5733 5731 5730 5729 5728 5727 5726 5725 5725 5726 5727 5729 5731 5733 5735 5737 5738 5740 5743 5746 5748 5750 5753 5754 5756
5732 5732 5732 5732 5731 5731 5730 5730 5729 5729 5729 5728 5728 5727 5727 5727 5726 5726 5725 5724 5724 5723 5722 5722 5721 5721 5721 5721 5722 5723 5724 5726 5728 5730 5732 5734 5736 5739 5741 5743 5745 5747 5749
5723 5723 5723 5723 5723 5722 5722 5722 5721 5721 5720 5720 5720 5719 5719 5718 5718 5717 5717 5716 5716 5716 5715 5715 5715 5715 5716 5716 5717 5717 5718 5720 5722 5724 5725 5728 5730 5732 5734 5736 5738 5740 5742
5715 5715 5715 5715 5715 5714 5714 5714 5713 5713 5712 5712 5712 5711 5710 5710 5709 5709 5708 5707 5707 5707 5707 5708 5707 5708 5708 5709 5710 5711 5712 5714 5716 5717 5719 5721 5723 5725 5727 5729 5731 5733 5735
5707 5708 5707 5707 5707 5707 5707 5706 5706 5706 5705 5704 5703 5703 5702 5701 5700 5700 5699 5698 5698 5698 5698 5698 5698 5699 5699 5701 5702 5704 5705 5706 5709 5710 5712 5714 5715 5717 5719 5721 5723 5726 5728
5701 5701 5701 5701 5701 5701 5700 5700 5699 5698 5697 5696 5695 5695 5694 5693 5691 5691 5690 5689 5688 5688 5687 5687 5687 5688 5689 5690 5692 5694 5696 5698 5700 5702 5704 5706 5707 5709 5711 5713 5715 5717 5720
5695 5696 5696 5696 5696 5695 5694 5693 5692 5691 5690 5689 5688 5687 5686 5685 5683 5682 5681 5680 5679 5678 5677 5677 5677 5677 5678 5679 5680 5682 5684 5686 5689 5692 5694 5696 5698 5700 5702 5704 5706 5708 5711